STARLINK-32754, 62527

Orbit data source: Space-Track

STARLINK-32754, 62527 is a payload satellite owned by SpaceX/Seattle (US) in LEO that was launched on Wed, 08 Jan 2025 UTC via an FALCON 9 launch vehicle from the Air Force Eastern Test Range (AFETR). Payload-class satellites include a variety of spacecraft equipped with specific instruments for various scientific and technological missions. These include communications satellites like Starlink; space stations such as the ISS; scientific satellites like the Hubble; Earth observation satellites from companies like Planet Labs, Umbra, and HawkEye 360; GPS; miniature CubeSats for education and research; and military/defense satellites.

Loading next visibility...
Identifier
62527, 2025-004S
Orbit
LEO
Country
Flag of USUS
Related business
Manufacturer
SpaceX/Seattle
Mission
Operational Commercial Communications
Bus & Motor
STARLINK V2M, Unknown motor
Mass
730 kg wet, ~700 kg dry
Launch date (UTC)
2025-01-08 (9 months ago)
Launch vehicle
FALCON 9
Launch site
Air Force Eastern Test Range (AFETR)
Object type
Payload
Rocket body
Debris
Shape & HBR
Box + 2 Pan, 17.7 m
Radar Cross Section
33.884 m², Large (>1 m²)

Expand to show TLE details & history
Last TLE update: 22 hours ago

TLE from 22 hours ago
0 STARLINK-32754
1 62527U 25004S   25288.50123913  .00030464  00000-0  11108-2 0  9992
2 62527  43.0026 319.8481 0001614 271.3659  88.7008 15.27614406 43305
Epoch: 2025-10-15T12:01Z
TLE epoch observation values (Epoch: 2025-10-15T12:01:47.060Z)
Latitude
-0.00002°
Longitude
115.12759°
Altitude
482.697 km
Speed
7.626 km/s
True Right ascension
21h 19m 23s
True Declination
0° 00' 00"
Sunlit
Object was in full shadow at epoch
Visualization orbit readout
Latitude
Unknown
Longitude
Unknown
Altitude
Unknown
Speed
Unknown
Apparent Right ascension
Unknown
Apparent Declination
Unknown
Sunlit
N/A
Visualization observer readout
Local Sidereal Time
05:01:33
Azimuth
Unknown
Elevation
Unknown
Doppler factor
Unknown
Orbital elements
Apogee altitude
485.999 km
Perigee altitude
483.783 km
Semi-major axis
6,863.028 km
Eccentricity
0.00016
Inclination
43.0026°
RAAN
319.8481°
Arg. of periapsis
271.3659°
True anomaly
88.71929°
Mean anomaly
88.7008°
Eccentric anomaly
88.71005°
Mean motion
3.81742 °/min
Orbital period
94.3 mins
BSTAR
0.0011108
Loading maneuver chart data...
Computing Atmospheric mass density...
Loading historical data...
Loading historical data...
Loading historical data...
Loading historical data...
Loading historical data...
Loading historical data...
Loading historical data...

Documentation

Showing up to 5 results
|